Location: Newark
(12.4436°N, 0.6167°W)
Time: 19:11:47
(UTC+00:00)

Transit 2A - Pass Details

Date: 15 December 2019
Orbit: 601 x 958 km, 66.7° (Epoch: 28 January)

Event Time Altitude Azimuth Distance (km) Brightness Sun altitude
Rises 03:48:03 0° 175° (S) 3,348 9.6 -34.4°
Reaches altitude 10° 03:51:04 10° 161° (SSE) 2,348 8.9 -33.7°
Maximum altitude 03:55:12 23° 110° (ESE) 1,553 8.2 -32.7°
Drops below altitude 10° 03:59:02 10° 59° (ENE) 2,165 8.7 -31.9°
Sets 04:01:40 0° 44° (NE) 3,023 9.4 -31.3°
